Time,TemperatureF,DewpointF,PressureIn,WindDirection,WindDirectionDegrees,WindSpeedMPH,WindSpeedGustMPH,Humidity,HourlyPrecipIn,Conditions,Clouds,dailyrainin,SoftwareType,DateUTC
2013-01-14 00:00:00,35.0,31.0,-100.00,ENE,67,4.0,-999.0,85,0.00,,,-99.99,,2013-01-14 08:00:00,
2013-01-14 00:22:00,35.0,31.0,-100.00,ENE,67,4.0,-999.0,85,0.00,,,-99.99,,2013-01-14 08:22:00,
2013-01-14 00:33:00,35.0,31.0,-100.00,ENE,67,4.0,-999.0,85,0.00,,,-99.99,,2013-01-14 08:33:00,
2013-01-14 00:43:00,35.0,31.0,-100.00,ENE,67,4.0,-999.0,85,0.00,,,-99.99,,2013-01-14 08:43:00,
2013-01-14 00:53:00,35.0,31.0,-100.00,ENE,67,4.0,-999.0,85,0.00,,,-99.99,,2013-01-14 08:53:00,
2013-01-14 01:00:00,34.0,29.0,-100.00,East,95,3.0,-999.0,83,0.00,,,-99.99,,2013-01-14 09:00:00,
2013-01-14 01:23:00,34.0,29.0,-100.00,East,95,3.0,-999.0,83,0.00,,,-99.99,,2013-01-14 09:23:00,
2013-01-14 01:34:00,34.0,29.0,-100.00,East,95,3.0,-999.0,83,0.00,,,-99.99,,2013-01-14 09:34:00,
2013-01-14 01:43:00,34.0,29.0,-100.00,East,95,3.0,-999.0,83,0.00,,,-99.99,,2013-01-14 09:43:00,
2013-01-14 01:53:00,34.0,29.0,-100.00,East,95,3.0,-999.0,83,0.00,,,-99.99,,2013-01-14 09:53:00,
2013-01-14 02:00:00,33.0,29.0,-100.00,East,87,2.0,-999.0,85,0.00,,,-99.99,,2013-01-14 10:00:00,
2013-01-14 02:23:00,33.0,29.0,-100.00,East,87,2.0,-999.0,85,0.00,,,-99.99,,2013-01-14 10:23:00,
2013-01-14 02:33:00,33.0,29.0,-100.00,East,87,2.0,-999.0,85,0.00,,,-99.99,,2013-01-14 10:33:00,
2013-01-14 02:43:00,33.0,29.0,-100.00,East,87,2.0,-999.0,85,0.00,,,-99.99,,2013-01-14 10:43:00,
2013-01-14 02:52:00,33.0,29.0,-100.00,East,87,2.0,-999.0,85,0.00,,,-99.99,,2013-01-14 10:52:00,
2013-01-14 03:00:00,33.0,30.0,-100.00,East,89,2.0,-999.0,86,0.00,,,-99.99,,2013-01-14 11:00:00,
2013-01-14 03:22:00,33.0,30.0,-100.00,East,89,2.0,-999.0,86,0.00,,,-99.99,,2013-01-14 11:22:00,
2013-01-14 03:33:00,33.0,30.0,-100.00,East,89,2.0,-999.0,86,0.00,,,-99.99,,2013-01-14 11:33:00,
2013-01-14 03:43:00,33.0,30.0,-100.00,East,89,2.0,-999.0,86,0.00,,,-99.99,,2013-01-14 11:43:00,
2013-01-14 03:53:00,33.0,30.0,-100.00,East,89,2.0,-999.0,86,0.00,,,-99.99,,2013-01-14 11:53:00,
2013-01-14 04:00:00,33.0,29.0,-100.00,ENE,77,5.0,-999.0,86,0.00,,,-99.99,,2013-01-14 12:00:00,
2013-01-14 04:23:00,33.0,29.0,-100.00,ENE,77,5.0,-999.0,86,0.00,,,-99.99,,2013-01-14 12:23:00,
2013-01-14 04:33:00,33.0,29.0,-100.00,ENE,77,5.0,-999.0,86,0.00,,,-99.99,,2013-01-14 12:33:00,
2013-01-14 04:43:00,33.0,29.0,-100.00,ENE,77,5.0,-999.0,86,0.00,,,-99.99,,2013-01-14 12:43:00,
2013-01-14 04:53:00,33.0,29.0,-100.00,ENE,77,5.0,-999.0,86,0.00,,,-99.99,,2013-01-14 12:53:00,
2013-01-14 05:00:00,32.0,28.0,-100.00,ENE,74,4.0,-999.0,86,0.00,,,-99.99,,2013-01-14 13:00:00,
2013-01-14 05:23:00,32.0,28.0,-100.00,ENE,74,4.0,-999.0,86,0.00,,,-99.99,,2013-01-14 13:23:00,
2013-01-14 05:33:00,32.0,28.0,-100.00,ENE,74,4.0,-999.0,86,0.00,,,-99.99,,2013-01-14 13:33:00,
2013-01-14 05:43:00,32.0,28.0,-100.00,ENE,74,4.0,-999.0,86,0.00,,,-99.99,,2013-01-14 13:43:00,
2013-01-14 05:53:00,32.0,28.0,-100.00,ENE,74,4.0,-999.0,86,0.00,,,-99.99,,2013-01-14 13:53:00,
2013-01-14 06:00:00,32.0,28.0,-100.00,ESE,106,2.0,-999.0,82,0.00,,,-99.99,,2013-01-14 14:00:00,
2013-01-14 06:23:00,32.0,28.0,-100.00,ESE,106,2.0,-999.0,82,0.00,,,-99.99,,2013-01-14 14:23:00,
2013-01-14 06:33:00,32.0,28.0,-100.00,ESE,106,2.0,-999.0,82,0.00,,,-99.99,,2013-01-14 14:33:00,
2013-01-14 06:43:00,32.0,28.0,-100.00,ESE,106,2.0,-999.0,82,0.00,,,-99.99,,2013-01-14 14:43:00,
2013-01-14 06:53:00,32.0,28.0,-100.00,ESE,106,2.0,-999.0,82,0.00,,,-99.99,,2013-01-14 14:53:00,
2013-01-14 07:00:00,34.0,28.0,-100.00,East,96,3.0,-999.0,80,0.00,,,-99.99,,2013-01-14 15:00:00,
2013-01-14 07:23:00,34.0,28.0,-100.00,East,96,3.0,-999.0,80,0.00,,,-99.99,,2013-01-14 15:23:00,
2013-01-14 07:33:00,34.0,28.0,-100.00,East,96,3.0,-999.0,80,0.00,,,-99.99,,2013-01-14 15:33:00,
2013-01-14 07:43:00,34.0,28.0,-100.00,East,96,3.0,-999.0,80,0.00,,,-99.99,,2013-01-14 15:43:00,
2013-01-14 07:53:00,34.0,28.0,-100.00,East,96,3.0,-999.0,80,0.00,,,-99.99,,2013-01-14 15:53:00,
2013-01-14 08:00:00,32.0,27.0,-100.00,East,96,3.0,-999.0,82,0.00,,,-99.99,,2013-01-14 16:00:00,
2013-01-14 08:23:00,32.0,27.0,-100.00,East,96,3.0,-999.0,82,0.00,,,-99.99,,2013-01-14 16:23:00,
2013-01-14 08:33:00,32.0,27.0,-100.00,East,96,3.0,-999.0,82,0.00,,,-99.99,,2013-01-14 16:33:00,
2013-01-14 08:43:00,32.0,27.0,-100.00,East,96,3.0,-999.0,82,0.00,,,-99.99,,2013-01-14 16:43:00,
2013-01-14 08:53:00,32.0,27.0,-100.00,East,96,3.0,-999.0,82,0.00,,,-99.99,,2013-01-14 16:53:00,
2013-01-14 09:00:00,36.0,30.0,-100.00,East,81,6.0,-999.0,78,0.00,,,-99.99,,2013-01-14 17:00:00,
2013-01-14 09:23:00,36.0,30.0,-100.00,East,81,6.0,-999.0,78,0.00,,,-99.99,,2013-01-14 17:23:00,
2013-01-14 09:33:00,36.0,30.0,-100.00,East,81,6.0,-999.0,78,0.00,,,-99.99,,2013-01-14 17:33:00,
2013-01-14 09:43:00,36.0,30.0,-100.00,East,81,6.0,-999.0,78,0.00,,,-99.99,,2013-01-14 17:43:00,
2013-01-14 09:53:00,36.0,30.0,-100.00,East,81,6.0,-999.0,78,0.00,,,-99.99,,2013-01-14 17:53:00,
2013-01-14 10:00:00,45.0,36.0,-100.00,ENE,78,2.0,-999.0,70,0.00,,,-99.99,,2013-01-14 18:00:00,
2013-01-14 10:23:00,45.0,36.0,-100.00,ENE,78,2.0,-999.0,70,0.00,,,-99.99,,2013-01-14 18:23:00,
2013-01-14 10:33:00,45.0,36.0,-100.00,ENE,78,2.0,-999.0,70,0.00,,,-99.99,,2013-01-14 18:33:00,
2013-01-14 10:43:00,45.0,36.0,-100.00,ENE,78,2.0,-999.0,70,0.00,,,-99.99,,2013-01-14 18:43:00,
2013-01-14 10:53:00,45.0,36.0,-100.00,ENE,78,2.0,-999.0,70,0.00,,,-99.99,,2013-01-14 18:53:00,
2013-01-14 11:00:00,49.0,34.0,-100.00,SE,145,4.0,-999.0,55,0.00,,,-99.99,,2013-01-14 19:00:00,
2013-01-14 11:22:00,49.0,34.0,-100.00,SE,145,4.0,-999.0,55,0.00,,,-99.99,,2013-01-14 19:22:00,
2013-01-14 11:33:00,49.0,34.0,-100.00,SE,145,4.0,-999.0,55,0.00,,,-99.99,,2013-01-14 19:33:00,
2013-01-14 11:43:00,49.0,34.0,-100.00,SE,145,4.0,-999.0,55,0.00,,,-99.99,,2013-01-14 19:43:00,
2013-01-14 11:53:00,49.0,34.0,-100.00,SE,145,4.0,-999.0,55,0.00,,,-99.99,,2013-01-14 19:53:00,
2013-01-14 12:00:00,52.0,36.0,-100.00,SSE,160,7.0,-999.0,55,0.00,,,-99.99,,2013-01-14 20:00:00,
2013-01-14 12:23:00,52.0,36.0,-100.00,SSE,160,7.0,-999.0,55,0.00,,,-99.99,,2013-01-14 20:23:00,
2013-01-14 12:33:00,52.0,36.0,-100.00,SSE,160,7.0,-999.0,55,0.00,,,-99.99,,2013-01-14 20:33:00,
2013-01-14 12:43:00,52.0,36.0,-100.00,SSE,160,7.0,-999.0,55,0.00,,,-99.99,,2013-01-14 20:43:00,
2013-01-14 12:53:00,52.0,36.0,-100.00,SSE,160,7.0,-999.0,55,0.00,,,-99.99,,2013-01-14 20:53:00,
2013-01-14 13:00:00,51.0,33.0,-100.00,South,169,8.0,-999.0,49,0.00,,,-99.99,,2013-01-14 21:00:00,
2013-01-14 13:23:00,51.0,33.0,-100.00,South,169,8.0,-999.0,49,0.00,,,-99.99,,2013-01-14 21:23:00,
2013-01-14 13:33:00,51.0,33.0,-100.00,South,169,8.0,-999.0,49,0.00,,,-99.99,,2013-01-14 21:33:00,
2013-01-14 13:43:00,51.0,33.0,-100.00,South,169,8.0,-999.0,49,0.00,,,-99.99,,2013-01-14 21:43:00,
2013-01-14 13:53:00,51.0,33.0,-100.00,South,169,8.0,-999.0,49,0.00,,,-99.99,,2013-01-14 21:53:00,
2013-01-14 14:00:00,51.0,35.0,-100.00,South,171,8.0,-999.0,52,0.00,,,-99.99,,2013-01-14 22:00:00,
2013-01-14 14:23:00,51.0,35.0,-100.00,South,171,8.0,-999.0,52,0.00,,,-99.99,,2013-01-14 22:23:00,
2013-01-14 14:33:00,51.0,35.0,-100.00,South,171,8.0,-999.0,52,0.00,,,-99.99,,2013-01-14 22:33:00,
2013-01-14 14:43:00,51.0,35.0,-100.00,South,171,8.0,-999.0,52,0.00,,,-99.99,,2013-01-14 22:43:00,
2013-01-14 14:52:00,51.0,35.0,-100.00,South,171,8.0,-999.0,52,0.00,,,-99.99,,2013-01-14 22:52:00,
2013-01-14 15:00:00,51.0,36.0,-100.00,ESE,102,2.0,-999.0,56,0.00,,,-99.99,,2013-01-14 23:00:00,
2013-01-14 15:23:00,51.0,36.0,-100.00,ESE,102,2.0,-999.0,56,0.00,,,-99.99,,2013-01-14 23:23:00,
2013-01-14 15:33:00,51.0,36.0,-100.00,ESE,102,2.0,-999.0,56,0.00,,,-99.99,,2013-01-14 23:33:00,
2013-01-14 15:43:00,51.0,36.0,-100.00,ESE,102,2.0,-999.0,56,0.00,,,-99.99,,2013-01-14 23:43:00,
2013-01-14 15:53:00,51.0,36.0,-100.00,ESE,102,2.0,-999.0,56,0.00,,,-99.99,,2013-01-14 23:53:00,
2013-01-14 16:00:00,51.0,38.0,-100.00,South,174,6.0,-999.0,60,0.00,,,-99.99,,2013-01-15 00:00:00,
2013-01-14 16:23:00,51.0,38.0,-100.00,South,174,6.0,-999.0,60,0.00,,,-99.99,,2013-01-15 00:23:00,
2013-01-14 16:33:00,51.0,38.0,-100.00,South,174,6.0,-999.0,60,0.00,,,-99.99,,2013-01-15 00:33:00,
2013-01-14 16:43:00,51.0,38.0,-100.00,South,174,6.0,-999.0,60,0.00,,,-99.99,,2013-01-15 00:43:00,
2013-01-14 16:53:00,51.0,38.0,-100.00,South,174,6.0,-999.0,60,0.00,,,-99.99,,2013-01-15 00:53:00,
2013-01-14 17:00:00,50.0,38.0,-100.00,SSE,164,1.0,-999.0,63,0.00,,,-99.99,,2013-01-15 01:00:00,
2013-01-14 17:23:00,50.0,38.0,-100.00,SSE,164,1.0,-999.0,63,0.00,,,-99.99,,2013-01-15 01:23:00,
2013-01-14 17:32:00,50.0,38.0,-100.00,SSE,164,1.0,-999.0,63,0.00,,,-99.99,,2013-01-15 01:32:00,
2013-01-14 17:43:00,50.0,38.0,-100.00,SSE,164,1.0,-999.0,63,0.00,,,-99.99,,2013-01-15 01:43:00,
2013-01-14 17:52:00,50.0,38.0,-100.00,SSE,164,1.0,-999.0,63,0.00,,,-99.99,,2013-01-15 01:52:00,
2013-01-14 18:00:00,46.0,37.0,-100.00,SE,125,2.0,-999.0,70,0.00,,,-99.99,,2013-01-15 02:00:00,
2013-01-14 18:23:00,46.0,37.0,-100.00,SE,125,2.0,-999.0,70,0.00,,,-99.99,,2013-01-15 02:23:00,
2013-01-14 18:33:00,46.0,37.0,-100.00,SE,125,2.0,-999.0,70,0.00,,,-99.99,,2013-01-15 02:33:00,
2013-01-14 18:42:00,46.0,37.0,-100.00,SE,125,2.0,-999.0,70,0.00,,,-99.99,,2013-01-15 02:42:00,
2013-01-14 18:53:00,46.0,37.0,-100.00,SE,125,2.0,-999.0,70,0.00,,,-99.99,,2013-01-15 02:53:00,
2013-01-14 19:00:00,42.0,35.0,-100.00,East,89,2.0,-999.0,77,0.00,,,-99.99,,2013-01-15 03:00:00,
2013-01-14 19:22:00,42.0,35.0,-100.00,East,89,2.0,-999.0,77,0.00,,,-99.99,,2013-01-15 03:22:00,
2013-01-14 19:33:00,42.0,35.0,-100.00,East,89,2.0,-999.0,77,0.00,,,-99.99,,2013-01-15 03:33:00,
2013-01-14 19:42:00,42.0,35.0,-100.00,East,89,2.0,-999.0,77,0.00,,,-99.99,,2013-01-15 03:42:00,
2013-01-14 19:52:00,42.0,35.0,-100.00,East,89,2.0,-999.0,77,0.00,,,-99.99,,2013-01-15 03:52:00,
2013-01-14 20:00:00,41.0,37.0,-100.00,ENE,64,2.0,-999.0,83,0.00,,,-99.99,,2013-01-15 04:00:00,
2013-01-14 20:22:00,41.0,37.0,-100.00,ENE,64,2.0,-999.0,83,0.00,,,-99.99,,2013-01-15 04:22:00,
2013-01-14 20:33:00,41.0,37.0,-100.00,ENE,64,2.0,-999.0,83,0.00,,,-99.99,,2013-01-15 04:33:00,
2013-01-14 20:42:00,41.0,37.0,-100.00,ENE,64,2.0,-999.0,83,0.00,,,-99.99,,2013-01-15 04:42:00,
2013-01-14 20:52:00,41.0,37.0,-100.00,ENE,64,2.0,-999.0,83,0.00,,,-99.99,,2013-01-15 04:52:00,
2013-01-14 21:00:00,40.0,36.0,-100.00,ENE,72,3.0,-999.0,85,0.00,,,-99.99,,2013-01-15 05:00:00,
2013-01-14 21:22:00,40.0,36.0,-100.00,ENE,72,3.0,-999.0,85,0.00,,,-99.99,,2013-01-15 05:22:00,
2013-01-14 21:33:00,40.0,36.0,-100.00,ENE,72,3.0,-999.0,85,0.00,,,-99.99,,2013-01-15 05:33:00,
2013-01-14 21:42:00,40.0,36.0,-100.00,ENE,72,3.0,-999.0,85,0.00,,,-99.99,,2013-01-15 05:42:00,
2013-01-14 21:52:00,40.0,36.0,-100.00,ENE,72,3.0,-999.0,85,0.00,,,-99.99,,2013-01-15 05:52:00,
2013-01-14 22:00:00,39.0,35.0,-100.00,NNE,32,2.0,-999.0,85,0.00,,,-99.99,,2013-01-15 06:00:00,
2013-01-14 22:22:00,39.0,35.0,-100.00,NNE,32,2.0,-999.0,85,0.00,,,-99.99,,2013-01-15 06:22:00,
2013-01-14 22:33:00,39.0,35.0,-100.00,NNE,32,2.0,-999.0,85,0.00,,,-99.99,,2013-01-15 06:33:00,
2013-01-14 22:43:00,39.0,35.0,-100.00,NNE,32,2.0,-999.0,85,0.00,,,-99.99,,2013-01-15 06:43:00,
2013-01-14 22:52:00,39.0,35.0,-100.00,NNE,32,2.0,-999.0,85,0.00,,,-99.99,,2013-01-15 06:52:00,
2013-01-14 23:00:00,38.0,35.0,-100.00,ENE,66,3.0,-999.0,88,0.00,,,-99.99,,2013-01-15 07:00:00,
2013-01-14 23:22:00,38.0,35.0,-100.00,ENE,66,3.0,-999.0,88,0.00,,,-99.99,,2013-01-15 07:22:00,
2013-01-14 23:33:00,38.0,35.0,-100.00,ENE,66,3.0,-999.0,88,0.00,,,-99.99,,2013-01-15 07:33:00,
2013-01-14 23:42:00,38.0,35.0,-100.00,ENE,66,3.0,-999.0,88,0.00,,,-99.99,,2013-01-15 07:42:00,
2013-01-14 23:52:00,38.0,35.0,-100.00,ENE,66,3.0,-999.0,88,0.00,,,-99.99,,2013-01-15 07:52:00,